Location: Newark
(43.5831°N, 21.3381°E)
Time: 12:41:31
(UTC+00:00)

UNISAT 6 - Pass Details

Date: 29 February 2020
Orbit: 608 x 688 km, 97.7° (Epoch: 08 April)

Event Time Altitude Azimuth Distance (km) Brightness Sun altitude
Rises 04:37:10 0° 112° (ESE) 2,883 ? -7.2°
Reaches altitude 10° 04:40:48 10° 79° (E) 1,999 ? -6.5°
Maximum altitude 04:42:13 11° 60° (ENE) 1,912 ? -6.3°
Drops below altitude 10° 04:43:38 10° 41° (NE) 2,017 ? -6.0°
Sets 04:47:21 0° 8° (N) 2,953 ? -5.3°
